Total_Precipitation_Accumulation
1.30 1.31 1.21 1.37 1.42 1.44 1.47 1.54 1.47 1.38 1.38 1.22 1.22 1.21 1.21 1.09 1.15 1.22 1.48 1.74 2.22 2.89 3.05 2.76 2.46 2.21 2.06 1.98 2.01 2.03 2.15 2.08 2.12 2.20 2.21 2.36 2.55 2.36 2.45 2.53 2.64 3.02 3.36
1.15 1.35 1.27 1.24 1.31 1.51 1.60 1.61 1.53 1.56 1.53 1.36 1.35 1.37 1.33 1.29 1.30 1.34 1.48 1.44 1.52 2.04 2.66 2.97 2.97 2.71 2.43 2.28 2.10 2.09 2.23 2.09 2.02 2.02 2.03 2.17 2.49 2.35 2.43 2.61 2.61 2.88 3.23
1.08 1.31 1.25 1.15 1.14 1.30 1.51 1.71 1.78 1.75 1.52 1.42 1.40 1.41 1.34 1.34 1.34 1.50 1.53 1.56 1.45 1.50 1.94 2.34 2.73 2.76 2.73 2.62 2.33 2.17 2.24 2.18 2.13 2.05 2.01 2.06 2.42 2.52 2.57 2.68 2.62 2.81 2.98
0.87 1.12 1.20 1.12 1.11 1.27 1.51 1.76 1.93 1.96 1.77 1.69 1.68 1.59 1.44 1.42 1.38 1.50 1.54 1.61 1.71 1.48 1.46 1.58 1.87 2.17 2.32 2.41 2.43 2.34 2.32 2.24 2.09 2.01 1.90 1.89 2.17 2.37 2.53 2.60 2.58 2.75 2.88
0.80 1.06 1.29 1.32 1.28 1.40 1.51 1.52 1.78 1.90 1.98 1.88 1.71 1.58 1.52 1.55 1.54 1.49 1.63 1.64 1.65 1.57 1.40 1.16 1.18 1.35 1.65 2.02 2.23 2.30 2.42 2.39 2.21 2.06 1.80 1.72 1.86 2.15 2.51 2.34 2.38 2.54 2.79
0.96 1.21 1.47 1.50 1.55 1.58 1.68 1.87 2.14 2.17 2.07 2.05 1.84 1.61 1.49 1.53 1.58 1.67 1.68 1.66 1.68 1.51 1.36 1.20 1.07 0.88 1.09 1.44 1.82 2.11 2.26 2.42 2.36 2.30 2.03 1.73 1.71 1.94 2.31 2.29 2.33 2.48 2.71
1.12 1.37 1.58 1.80 1.91 1.78 1.82 2.05 2.35 2.49 2.29 2.12 2.19 2.07 1.90 1.71 1.67 1.62 1.61 1.67 1.70 1.63 1.49 1.43 1.31 1.15 1.08 1.09 1.33 1.68 1.94 2.18 2.30 2.39 2.35 2.06 1.86 1.89 2.01 1.98 2.06 2.38 2.75
1.19 1.24 1.51 1.71 1.79 1.86 1.91 2.02 2.32 2.65 2.45 2.17 2.36 2.75 2.56 2.35 1.88 1.56 1.67 1.71 1.77 1.70 1.56 1.39 1.38 1.32 1.27 1.34 1.02 1.07 1.44 1.83 2.26 2.42 2.39 2.28 2.14 1.93 1.96 1.88 1.85 2.03 2.37
1.52 1.50 1.54 1.65 1.74 1.88 2.02 2.06 2.10 2.42 2.51 2.34 2.30 2.86 2.83 2.63 2.43 1.94 1.61 1.67 1.79 1.84 1.79 1.66 1.52 1.46 1.39 1.50 1.28 0.94 1.06 1.30 1.81 2.24 2.47 2.46 2.31 2.04 1.99 1.93 1.87 1.99 2.13
1.83 1.83 1.84 1.91 1.83 1.82 1.92 1.92 1.91 2.15 2.49 2.55 2.39 2.23 2.19 2.30 2.65 2.39 1.86 1.70 1.73 1.75 1.84 1.71 1.71 1.72 1.67 1.59 1.46 1.12 0.86 0.94 1.36 2.01 2.52 2.54 2.38 2.23 2.11 2.05 1.89 1.88 2.01
2.40 2.35 2.28 2.11 1.91 1.85 1.92 1.96 1.98 2.07 2.19 2.37 2.34 2.18 2.14 2.10 1.99 2.19 2.17 1.96 1.76 1.64 1.73 1.75 1.74 1.74 1.78 1.71 1.61 1.29 0.94 0.77 0.92 1.50 2.14 2.35 2.37 2.27 2.22 2.14 1.96 1.84 1.74
2.38 2.30 2.14 1.91 1.74 1.69 1.77 1.93 1.96 2.03 2.03 2.10 2.09 1.98 1.99 1.95 1.90 2.07 2.03 2.04 2.00 1.63 1.48 1.54 1.58 1.62 1.60 1.63 1.50 1.58 1.24 0.91 0.78 1.00 1.45 1.85 2.15 2.35 2.32 2.39 2.24 2.05 1.85
1.79 1.78 1.78 1.75 1.65 1.56 1.66 1.89 1.99 2.03 2.02 1.99 1.93 1.86 1.91 1.78 1.82 2.10 2.20 2.11 1.99 1.66 1.47 1.35 1.38 1.43 1.36 1.47 1.54 1.67 1.41 1.13 0.90 0.85 1.01 1.27 1.55 1.92 2.29 2.55 2.71 2.60 2.45
1.58 1.60 1.65 1.67 1.61 1.58 1.60 1.73 1.87 1.98 1.98 1.91 1.84 1.94 1.95 1.75 1.82 1.87 1.96 2.18 2.07 1.81 1.57 1.29 1.22 1.17 1.22 1.27 1.43 1.62 1.18 1.11 0.97 0.85 0.81 0.90 1.14 1.38 1.72 2.16 2.54 2.65 2.64
1.25 1.35 1.46 1.55 1.51 1.48 1.49 1.62 1.77 1.81 1.89 1.96 1.96 1.93 1.93 1.86 1.87 1.90 2.01 2.12 2.16 1.96 1.70 1.41 1.24 1.10 1.14 1.13 1.34 1.25 1.07 1.12 1.04 0.93 0.87 0.82 0.93 1.12 1.37 1.49 1.60 1.74 1.91
1.17 1.19 1.15 1.16 1.14 1.18 1.19 1.29 1.48 1.58 1.63 1.71 1.73 1.76 1.80 1.77 1.84 1.87 1.94 2.04 2.03 1.97 1.82 1.51 1.29 1.21 1.23 1.10 1.22 1.11 1.16 1.32 1.14 0.99 0.92 0.86 0.87 0.96 1.05 1.10 1.11 1.10 1.14
0.86 0.91 0.84 0.83 0.88 0.92 0.87 0.96 1.07 1.16 1.27 1.38 1.38 1.43 1.51 1.50 1.64 1.68 1.78 1.88 1.92 1.88 1.67 1.44 1.30 1.30 1.29 1.25 1.22 1.13 1.17 1.21 1.11 1.02 0.89 0.80 0.82 0.88 0.94 1.00 1.00 0.96 0.95
0.57 0.62 0.61 0.59 0.65 0.77 0.79 0.86 0.92 0.92 1.02 1.14 1.20 1.24 1.24 1.26 1.37 1.45 1.53 1.62 1.76 1.81 1.71 1.52 1.38 1.28 1.16 1.16 1.30 1.33 1.30 1.22 1.23 1.29 1.17 1.01 0.94 0.91 0.88 0.94 1.00 0.96 0.93
0.48 0.49 0.49 0.52 0.53 0.61 0.75 0.80 0.81 0.81 0.83 0.86 0.91 0.94 0.99 1.08 1.23 1.27 1.29 1.40 1.56 1.63 1.73 1.60 1.47 1.38 1.21 1.14 1.30 1.31 1.35 1.51 1.43 1.50 1.62 1.41 1.17 1.03 0.91 0.94 1.01 0.99 0.93
0.44 0.43 0.41 0.42 0.50 0.60 0.68 0.76 0.77 0.75 0.74 0.77 0.81 0.80 0.79 0.84 0.96 1.10 1.18 1.34 1.50 1.64 1.72 1.65 1.58 1.52 1.42 1.29 1.36 1.46 1.52 1.60 1.63 1.46 1.47 1.44 1.38 1.27 1.08 0.96 1.02 1.07 1.07
0.39 0.36 0.35 0.38 0.44 0.50 0.55 0.70 0.72 0.72 0.75 0.72 0.74 0.77 0.77 0.77 0.80 0.86 0.85 1.03 1.24 1.48 1.59 1.66 1.65 1.64 1.56 1.48 1.40 1.53 1.61 1.72 1.81 1.78 1.64 1.46 1.42 1.27 1.15 1.07 1.04 1.08 1.13
0.36 0.34 0.33 0.35 0.36 0.33 0.51 0.59 0.63 0.70 0.76 0.80 0.78 0.79 0.76 0.74 0.81 0.80 0.78 0.80 0.92 1.07 1.25 1.37 1.44 1.47 1.51 1.59 1.68 1.68 1.65 1.71 1.76 1.75 1.63 1.64 1.57 1.45 1.28 1.10 1.10 1.12 1.15
0.32 0.31 0.32 0.34 0.34 0.32 0.36 0.38 0.51 0.65 0.77 0.80 0.78 0.88 0.91 0.83 0.84 0.87 0.90 0.82 0.75 0.78 0.93 1.14 1.26 1.29 1.36 1.44 1.65 1.69 1.69 1.72 1.63 1.64 1.49 1.54 1.49 1.36 1.27 1.23 1.24 1.16 1.16
0.31 0.32 0.37 0.36 0.34 0.30 0.31 0.30 0.38 0.53 0.67 0.71 0.71 0.81 1.04 1.06 0.95 0.92 0.98 1.04 0.93 0.77 0.77 0.83 1.01 1.15 1.20 1.35 1.68 1.88 1.82 1.60 1.54 1.58 1.47 1.48 1.41 1.28 1.20 1.18 1.24 1.14 1.12
0.31 0.30 0.31 0.33 0.31 0.30 0.31 0.31 0.34 0.44 0.55 0.58 0.61 0.73 0.88 1.00 0.96 0.94 0.92 0.99 1.00 0.88 0.84 0.86 0.83 0.91 1.05 1.22 1.49 1.75 1.84 1.77 1.58 1.52 1.40 1.32 1.32 1.29 1.31 1.27 1.22 1.21 1.11
0.32 0.33 0.32 0.29 0.27 0.27 0.30 0.33 0.35 0.37 0.41 0.41 0.48 0.65 0.84 0.82 0.79 0.85 0.91 1.00 1.10 0.93 0.85 0.93 0.90 0.93 0.95 1.14 1.48 1.67 1.80 1.79 1.65 1.58 1.46 1.37 1.35 1.36 1.53 1.47 1.29 1.24 1.17